Retour au catalogue

SL-8 R/B

ActifPO
NORAD 7769·ROCKET BODY·🇷🇺 Russia

Lancé Apr 22, 1975 depuis Plesetsk Cosmodrome

Loading…

Prochains Passages (prochaines 24 heures)

TLE

FraisSource: Space-Track

Époque: Sep 14, 2026, 08:02 UTC

1 07769U 75034B   26257.33484198  .00000090  00000-0  77733-4 0  9990
2 07769  82.9637  28.7139 0019485 134.1545 253.8363 13.75191909577965

Suivez SL-8 R/B en temps réel avec AllMySat

Download on the App Store